Regional Weather Roundup
Issued by NWS State College, PA

Home | Current Version | Previous Version | Graphics & Text | Print | Product List | Glossary On
Versions: 1 2 3 4 5 6 7 8 9 10 11 12 13 14 15 16 17 18 19 20 21 22 23 24 25 26 27 28 29 30 31 32 33 34 35 36 37 38 39 40 41 42 43 44 45 46 47 48 49 50
888
ASUS41 KCTP 012310
RWRCTP

REGIONAL WEATHER ROUNDUP
NATIONAL WEATHER SERVICE STATE COLLEGE PA
700 PM EDT SUN MAY 01 2016

Note: "fair" indicates few or no clouds below 12,000 feet with no
significant weather and/or obstructions to visibility.

* = STATION THAT DOES NOT REPORT PRECIPITATION /E.G. RAIN...SNOW...ETC/
    THUNDER OR FOG.

PAZ002>004-007>009-013>016-020>023-029>032-020000-
WESTERN PENNSYLVANIA

CITY           SKY/WX    TMP DP  RH WIND       PRES   REMARKS
ERIE           CLOUDY    48  46  93 NE8       29.98R FOG
MEADVILLE        N/A    N/A N/A N/A MISG      29.95R
FRANKLIN*      MOSUNNY   63  54  72 NW9       29.95R
NEW CASTLE     MOCLDY    68  58  70 N9        29.93R
BEAVER COUNTY  NOT AVBL
BUTLER*        CLOUDY    70  55  60 SW7       29.96R
PITTSBURGH INT CLOUDY    64  57  78 SW3       29.93R
PITTSBURGH     CLOUDY    61  56  83 S9        29.93R
INDIANA*       PTSUNNY   66  61  82 SW5       29.97R
LATROBE        PTSUNNY   63  63 100 CALM      29.95R
WASHINGTON CO* PTSUNNY   57  54  88 CALM      29.94F
$$

PAZ004>006-010>012-017>019-024>028-033>037-041-042-045-046-049>053-020000-
CENTRAL PENNSYLVANIA

CITY           SKY/WX    TMP DP  RH WIND       PRES   REMARKS
BRADFORD       CLOUDY    59  55  87 SE3       29.93R
DUBOIS         CLOUDY    60  56  86 SE7       29.92S
CLEARFIELD     CLOUDY    55  52  89 NE3       29.96R
JOHNSTOWN      LGT RAIN  57  52  83 S15       29.97R
ALTOONA        CLOUDY    55  52  89 SE9       29.99R
STATE COLLEGE  CLOUDY    50  48  93 CALM      29.98F
WILLIAMSPORT   CLOUDY    49  45  86 E6        30.01S
SELINSGROVE    CLOUDY    50  47  89 SE5       30.04R
FT INDIANTOWN  CLOUDY    48  48 100 NE3       30.05S FOG
CAPITAL CITY   CLOUDY    53  50  89 E6        30.04S FOG
HARRISBURG     DRIZZLE   52  50  93 NE5       30.03S FOG
YORK           CLOUDY    53  51  93 SE6       30.03R FOG
$$

PAZ038>040-043-044-047-048-054-055-060>062-067>071-020000-
EASTERN PENNSYLVANIA

CITY           SKY/WX    TMP DP  RH WIND       PRES   REMARKS
SCRANTON       CLOUDY    49  44  83 VRB3      30.03F
MOUNT POCONO   FOG       43  42  97 SE8       30.03F VSB 1/4
ALLENTOWN      CLOUDY    50  46  87 E6        30.07R FOG
QUAKERTOWN*    CLOUDY    48  48 100 SE5       30.07S
READING        CLOUDY    51  49  92 CALM      30.05S FOG
LANCASTER      CLOUDY    51  51 100 SE5       30.05R
COATESVILLE    FOG       50  50 100 E7        30.05F VSB 1/2
POTTSTOWN      CLOUDY    50  49  96 CALM      30.07S FOG
BLUE BELL      CLOUDY    48  46  93 E5        30.06S
DOYLESTOWN     CLOUDY    48  48 100 CALM      30.06S
WILLOW GROVE   NOT AVBL
NORTH PHILA    CLOUDY    52  49  89 E7        30.08S
PHILADELPHIA   LGT RAIN  53  50  89 NE6       30.07S FOG
$$




USA.gov is the U.S. government's official web portal to all federal, state and local government web resources and services.